Date,TemperatureHighF,TemperatureAvgF,TemperatureLowF,DewpointHighF,DewpointAvgF,DewpointLowF,HumidityHigh,HumidityAvg,HumidityLow,PressureMaxIn,PressureMinIn,WindSpeedMaxMPH,WindSpeedAvgMPH,GustSpeedMaxMPH,PrecipitationSumIn
2014-1-1,66.0,59.1,48.0,-99.9,-99.9,-99.9,0,0,100,0.00,40.00,0,-999,0,0.00
2014-1-2,73.0,57.9,47.0,-99.9,-99.9,-99.9,0,0,100,0.00,40.00,0,-999,0,0.00
2014-1-3,69.0,56.0,47.0,-99.9,-99.9,-99.9,0,0,100,0.00,40.00,0,-999,0,0.00
2014-1-4,62.0,48.8,40.0,-99.9,-99.9,-99.9,0,0,100,0.00,40.00,0,-999,0,0.00
2014-1-5,67.0,52.3,38.0,-99.9,-99.9,-99.9,0,0,100,0.00,40.00,0,-999,0,0.00
2014-1-6,69.0,53.1,47.0,-99.9,-99.9,-99.9,0,0,100,0.00,40.00,0,-999,0,0.00
2014-1-7,62.0,51.7,46.0,-99.9,-99.9,-99.9,0,0,100,0.00,40.00,0,-999,0,0.00
2014-1-8,58.0,51.8,46.0,-99.9,-99.9,-99.9,0,0,100,0.00,40.00,0,-999,0,0.00
2014-1-9,58.0,52.0,47.0,-99.9,-99.9,-99.9,0,0,100,0.00,40.00,0,-999,0,0.00
2014-1-10,67.0,57.8,48.0,-99.9,-99.9,-99.9,0,0,100,0.00,40.00,0,-999,0,0.00
2014-1-11,69.0,58.5,51.0,-99.9,-99.9,-99.9,0,0,100,0.00,40.00,0,-999,0,0.00
2014-1-12,59.0,52.2,47.0,-99.9,-99.9,-99.9,0,0,100,0.00,40.00,0,-999,0,0.00
2014-1-14,76.0,66.5,56.0,-99.9,-99.9,-99.9,0,0,100,0.00,40.00,0,-999,0,0.00
2014-1-15,79.0,72.3,62.0,-99.9,-99.9,-99.9,0,0,100,0.00,40.00,0,-999,0,0.00
2014-1-16,80.0,72.5,65.0,-99.9,-99.9,-99.9,0,0,100,0.00,40.00,0,-999,0,0.00
2014-1-17,82.0,74.7,65.0,-99.9,-99.9,-99.9,0,0,100,0.00,40.00,0,-999,0,0.00
2014-1-18,79.0,71.9,57.0,-99.9,-99.9,-99.9,0,0,100,0.00,40.00,0,-999,0,0.00
2014-1-19,74.0,63.0,50.0,-99.9,-99.9,-99.9,0,0,100,0.00,40.00,0,-999,0,0.00
2014-1-20,70.0,58.5,47.0,-99.9,-99.9,-99.9,0,0,100,0.00,40.00,0,-999,0,0.00
2014-1-21,65.0,57.6,47.0,-99.9,-99.9,-99.9,0,0,100,0.00,40.00,0,-999,0,0.00
2014-1-22,76.0,65.9,58.0,-99.9,-99.9,-99.9,0,0,100,0.00,40.00,0,-999,0,0.00
2014-1-23,59.0,51.9,43.0,-99.9,-99.9,-99.9,0,0,100,0.00,40.00,0,-999,0,0.00
2014-1-24,67.0,57.1,46.0,-99.9,-99.9,-99.9,0,0,100,0.00,40.00,0,-999,0,0.00
2014-1-25,71.0,61.1,51.0,-99.9,-99.9,-99.9,0,0,100,0.00,40.00,0,-999,0,0.00
2014-1-26,62.0,55.0,51.0,-99.9,-99.9,-99.9,0,0,100,0.00,40.00,0,-999,0,0.00
2014-1-27,61.0,51.0,43.0,-99.9,-99.9,-99.9,0,0,100,0.00,40.00,0,-999,0,0.00
2014-1-28,72.0,62.0,53.0,-99.9,-99.9,-99.9,0,0,100,0.00,40.00,0,-999,0,0.00
2014-1-29,68.0,60.4,52.0,-99.9,-99.9,-99.9,0,0,100,0.00,40.00,0,-999,0,0.00
2014-1-30,54.0,51.5,49.0,-99.9,-99.9,-99.9,0,0,100,0.00,40.00,0,-999,0,0.00
2014-1-31,56.0,50.3,45.0,-99.9,-99.9,-99.9,0,0,100,0.00,40.00,0,-999,0,0.00
2014-2-1,55.0,47.1,42.0,-99.9,-99.9,-99.9,0,0,100,0.00,40.00,0,-999,0,0.00
2014-2-2,47.0,44.0,41.0,-99.9,-99.9,-99.9,0,0,100,0.00,40.00,0,-999,0,0.00
2014-2-3,52.0,47.5,43.0,-99.9,-99.9,-99.9,0,0,100,0.00,40.00,0,-999,0,0.00
2014-2-4,52.0,46.9,41.0,-99.9,-99.9,-99.9,0,0,100,0.00,40.00,0,-999,0,0.00
2014-2-5,57.0,47.2,41.0,-99.9,-99.9,-99.9,0,0,100,0.00,40.00,0,-999,0,0.00
2014-2-6,51.0,47.3,44.0,-99.9,-99.9,-99.9,0,0,100,0.00,40.00,0,-999,0,0.00
2014-2-7,54.0,51.1,46.0,-99.9,-99.9,-99.9,0,0,100,0.00,40.00,0,-999,0,0.00
2014-2-8,54.0,51.6,49.0,-99.9,-99.9,-99.9,0,0,100,0.00,40.00,0,-999,0,0.00
2014-2-9,58.0,54.0,52.0,-99.9,-99.9,-99.9,0,0,100,0.00,40.00,0,-999,0,0.00
2014-2-10,58.0,54.1,51.0,-99.9,-99.9,-99.9,0,0,100,0.00,40.00,0,-999,0,0.00
2014-2-11,67.0,59.2,51.0,-99.9,-99.9,-99.9,0,0,100,0.00,40.00,0,-999,0,0.00
2014-2-12,65.0,58.9,51.0,-99.9,-99.9,-99.9,0,0,100,0.00,40.00,0,-999,0,0.00
2014-2-13,70.0,62.1,51.0,-99.9,-99.9,-99.9,0,0,100,0.00,40.00,0,-999,0,0.00
2014-2-14,68.0,53.3,43.0,-99.9,-99.9,-99.9,0,0,100,0.00,40.00,0,-999,0,0.00
2014-2-15,61.0,51.7,43.0,-99.9,-99.9,-99.9,0,0,100,0.00,40.00,0,-999,0,0.00
2014-2-16,68.0,55.8,47.0,-99.9,-99.9,-99.9,0,0,100,0.00,40.00,0,-999,0,0.00
2014-2-17,58.0,54.2,49.0,-99.9,-99.9,-99.9,0,0,100,0.00,40.00,0,-999,0,0.00
2014-2-18,64.0,58.4,50.0,-99.9,-99.9,-99.9,0,0,100,0.00,40.00,0,-999,0,0.00
2014-2-19,61.0,53.8,47.0,-99.9,-99.9,-99.9,0,0,100,0.00,40.00,0,-999,0,0.00
2014-2-20,65.0,58.0,51.0,-99.9,-99.9,-99.9,0,0,100,0.00,40.00,0,-999,0,0.00
2014-2-21,73.0,63.6,57.0,-99.9,-99.9,-99.9,0,0,100,0.00,40.00,0,-999,0,0.00
2014-2-22,71.0,59.7,47.0,-99.9,-99.9,-99.9,0,0,100,0.00,40.00,0,-999,0,0.00
2014-2-23,63.0,53.2,44.0,-99.9,-99.9,-99.9,0,0,100,0.00,40.00,0,-999,0,0.00
2014-2-24,60.0,51.1,40.0,-99.9,-99.9,-99.9,0,0,100,0.00,40.00,0,-999,0,0.00
2014-2-25,57.0,49.2,42.0,-99.9,-99.9,-99.9,0,0,100,0.00,40.00,0,-999,0,0.00
2014-2-26,56.0,52.8,51.0,-99.9,-99.9,-99.9,0,0,100,0.00,40.00,0,-999,0,0.00
2014-2-27,65.0,56.6,51.0,-99.9,-99.9,-99.9,0,0,100,0.00,40.00,0,-999,0,0.00
2014-2-28,55.0,52.2,49.0,-99.9,-99.9,-99.9,0,0,100,0.00,40.00,0,-999,0,0.00
2014-3-1,54.0,50.9,47.0,-99.9,-99.9,-99.9,0,0,100,0.00,40.00,0,-999,0,0.00
2014-3-2,54.0,50.8,47.0,-99.9,-99.9,-99.9,0,0,100,0.00,40.00,0,-999,0,0.00
2014-3-3,60.0,51.9,44.0,-99.9,-99.9,-99.9,0,0,100,0.00,40.00,0,-999,0,0.00
2014-3-4,59.0,53.2,49.0,-99.9,-99.9,-99.9,0,0,100,0.00,40.00,0,-999,0,0.00
2014-3-5,62.0,54.7,47.0,-99.9,-99.9,-99.9,0,0,100,0.00,40.00,0,-999,0,0.00
2014-3-6,60.0,55.8,52.0,-99.9,-99.9,-99.9,0,0,100,0.00,40.00,0,-999,0,0.00
2014-3-7,67.0,59.5,50.0,-99.9,-99.9,-99.9,0,0,100,0.00,40.00,0,-999,0,0.00
2014-3-8,75.0,63.5,55.0,-99.9,-99.9,-99.9,0,0,100,0.00,40.00,0,-999,0,0.00
2014-3-9,73.0,66.0,56.0,-99.9,-99.9,-99.9,0,0,100,0.00,40.00,0,-999,0,0.00
2014-3-10,69.0,58.4,47.0,-99.9,-99.9,-99.9,0,0,100,0.00,40.00,0,-999,0,0.00
2014-3-11,69.0,59.5,54.0,-99.9,-99.9,-99.9,0,0,100,0.00,40.00,0,-999,0,0.00
2014-3-12,71.0,60.3,52.0,-99.9,-99.9,-99.9,0,0,100,0.00,40.00,0,-999,0,0.00
2014-3-13,71.0,63.2,51.0,-99.9,-99.9,-99.9,0,0,100,0.00,40.00,0,-999,0,0.00
2014-3-14,63.0,53.7,41.0,-99.9,-99.9,-99.9,0,0,100,0.00,40.00,0,-999,0,0.00
2014-3-15,78.0,65.3,53.0,-99.9,-99.9,-99.9,0,0,100,0.00,40.00,0,-999,0,0.00
2014-3-16,83.0,73.0,63.0,-99.9,-99.9,-99.9,0,0,100,0.00,40.00,0,-999,0,0.00
2014-3-17,62.0,53.6,44.0,-99.9,-99.9,-99.9,0,0,100,0.00,40.00,0,-999,0,0.00
2014-3-18,68.0,58.2,48.0,-99.9,-99.9,-99.9,0,0,100,0.00,40.00,0,-999,0,0.00
2014-3-19,69.0,63.8,53.0,-99.9,-99.9,-99.9,0,0,100,0.00,40.00,0,-999,0,0.00
2014-3-20,65.0,54.0,46.0,-99.9,-99.9,-99.9,0,0,100,0.00,40.00,0,-999,0,0.00
2014-3-21,56.0,49.9,45.0,-99.9,-99.9,-99.9,0,0,100,0.00,40.00,0,-999,0,0.00
2014-3-22,58.0,50.2,42.0,-99.9,-99.9,-99.9,0,0,100,0.00,40.00,0,-999,0,0.00
2014-3-23,59.0,50.9,46.0,-99.9,-99.9,-99.9,0,0,100,0.00,40.00,0,-999,0,0.00
2014-3-24,62.0,52.1,43.0,-99.9,-99.9,-99.9,0,0,100,0.00,40.00,0,-999,0,0.00
2014-3-25,59.0,51.2,46.0,-99.9,-99.9,-99.9,0,0,100,0.00,40.00,0,-999,0,0.00
2014-3-26,56.0,52.1,49.0,-99.9,-99.9,-99.9,0,0,100,0.00,40.00,0,-999,0,0.00
2014-3-27,58.0,52.5,44.0,-99.9,-99.9,-99.9,0,0,100,0.00,40.00,0,-999,0,0.00
2014-3-28,65.0,54.7,46.0,-99.9,-99.9,-99.9,0,0,100,0.00,40.00,0,-999,0,0.00
2014-3-29,60.0,53.1,44.0,-99.9,-99.9,-99.9,0,0,100,0.00,40.00,0,-999,0,0.00
2014-3-30,57.0,52.0,47.0,-99.9,-99.9,-99.9,0,0,100,0.00,40.00,0,-999,0,0.00
2014-3-31,55.0,48.9,42.0,-99.9,-99.9,-99.9,0,0,100,0.00,40.00,0,-999,0,0.00
2014-4-1,54.0,47.5,41.0,-99.9,-99.9,-99.9,0,0,100,0.00,40.00,0,-999,0,0.00
2014-4-2,54.0,47.4,42.0,-99.9,-99.9,-99.9,0,0,100,0.00,40.00,0,-999,0,0.00
2014-4-3,58.0,51.7,45.0,-99.9,-99.9,-99.9,0,0,100,0.00,40.00,0,-999,0,0.00
2014-4-4,54.0,49.6,42.0,-99.9,-99.9,-99.9,0,0,100,0.00,40.00,0,-999,0,0.00
2014-4-5,58.0,51.7,43.0,-99.9,-99.9,-99.9,0,0,100,0.00,40.00,0,-999,0,0.00
2014-4-6,73.0,58.2,49.0,-99.9,-99.9,-99.9,0,0,100,0.00,40.00,0,-999,0,0.00
2014-4-7,80.0,70.3,60.0,-99.9,-99.9,-99.9,0,0,100,0.00,40.00,0,-999,0,0.00
2014-4-8,78.0,62.3,47.0,-99.9,-99.9,-99.9,0,0,100,0.00,40.00,0,-999,0,0.00
2014-4-9,65.0,51.3,41.0,-99.9,-99.9,-99.9,0,0,100,0.00,40.00,0,-999,0,0.00
2014-4-10,62.0,54.1,43.0,-99.9,-99.9,-99.9,0,0,100,0.00,40.00,0,-999,0,0.00
2014-4-11,60.0,52.9,46.0,-99.9,-99.9,-99.9,0,0,100,0.00,40.00,0,-999,0,0.00
2014-4-12,57.0,50.9,47.0,-99.9,-99.9,-99.9,0,0,100,0.00,40.00,0,-999,0,0.00
2014-4-13,58.0,52.9,48.0,-99.9,-99.9,-99.9,0,0,100,0.00,40.00,0,-999,0,0.00
2014-4-14,65.0,54.5,46.0,-99.9,-99.9,-99.9,0,0,100,0.00,40.00,0,-999,0,0.00
2014-4-15,62.0,53.3,46.0,-99.9,-99.9,-99.9,0,0,100,0.00,40.00,0,-999,0,0.00
2014-4-16,68.0,54.4,44.0,-99.9,-99.9,-99.9,0,0,100,0.00,40.00,0,-999,0,0.00
2014-4-17,59.0,51.3,47.0,-99.9,-99.9,-99.9,0,0,100,0.00,40.00,0,-999,0,0.00
2014-4-18,60.0,54.2,47.0,-99.9,-99.9,-99.9,0,0,100,0.00,40.00,0,-999,0,0.00
2014-4-19,61.0,51.9,47.0,-99.9,-99.9,-99.9,0,0,100,0.00,40.00,0,-999,0,0.00
2014-4-20,69.0,61.1,47.0,-99.9,-99.9,-99.9,0,0,100,0.00,40.00,0,-999,0,0.00
2014-4-21,71.0,60.8,51.0,-99.9,-99.9,-99.9,0,0,100,0.00,40.00,0,-999,0,0.00
2014-4-22,59.0,52.3,47.0,-99.9,-99.9,-99.9,0,0,100,0.00,40.00,0,-999,0,0.00
2014-4-23,62.0,54.4,47.0,-99.9,-99.9,-99.9,0,0,100,0.00,40.00,0,-999,0,0.00
2014-4-24,69.0,57.3,50.0,-99.9,-99.9,-99.9,0,0,100,0.00,40.00,0,-999,0,0.00
2014-4-25,57.0,50.1,45.0,-99.9,-99.9,-99.9,0,0,100,0.00,40.00,0,-999,0,0.00
2014-4-26,56.0,48.9,42.0,-99.9,-99.9,-99.9,0,0,100,0.00,40.00,0,-999,0,0.00
2014-4-27,60.0,52.4,43.0,-99.9,-99.9,-99.9,0,0,100,0.00,40.00,0,-999,0,0.00
2014-4-28,69.0,56.5,44.0,-99.9,-99.9,-99.9,0,0,100,0.00,40.00,0,-999,0,0.00
2014-4-29,87.0,70.1,60.0,-99.9,-99.9,-99.9,0,0,100,0.00,40.00,0,-999,0,0.00
2014-4-30,88.0,73.5,62.0,-99.9,-99.9,-99.9,0,0,100,0.00,40.00,0,-999,0,0.00
2014-5-1,82.0,70.2,56.0,-99.9,-99.9,-99.9,0,0,100,0.00,40.00,0,-999,0,0.00
2014-5-2,88.0,73.1,58.0,-99.9,-99.9,-99.9,0,0,100,0.00,40.00,0,-999,0,0.00
2014-5-3,68.0,58.9,49.0,-99.9,-99.9,-99.9,0,0,100,0.00,40.00,0,-999,0,0.00
2014-5-4,66.0,56.0,47.0,-99.9,-99.9,-99.9,0,0,100,0.00,40.00,0,-999,0,0.00
2014-5-5,58.0,52.0,46.0,-99.9,-99.9,-99.9,0,0,100,0.00,40.00,0,-999,0,0.00
2014-5-6,58.0,51.1,43.0,-99.9,-99.9,-99.9,0,0,100,0.00,40.00,0,-999,0,0.00
2014-5-13,84.0,73.2,65.0,-99.9,-99.9,-99.9,0,0,100,0.00,40.00,0,-999,0,0.00
2014-5-14,91.0,76.9,64.0,-99.9,-99.9,-99.9,0,0,100,0.00,40.00,0,-999,0,0.00
2014-5-15,92.0,82.0,65.0,-99.9,-99.9,-99.9,0,0,100,0.00,40.00,0,-999,0,0.00
2014-5-16,73.0,63.4,53.0,-99.9,-99.9,-99.9,0,0,100,0.00,40.00,0,-999,0,0.00
2014-5-17,64.0,54.6,47.0,-99.9,-99.9,-99.9,0,0,100,0.00,40.00,0,-999,0,0.00
2014-5-18,63.0,57.0,49.0,-99.9,-99.9,-99.9,0,0,100,0.00,40.00,0,-999,0,0.00
2014-5-19,61.0,53.5,47.0,-99.9,-99.9,-99.9,0,0,100,0.00,40.00,0,-999,0,0.00
2014-5-20,59.0,54.1,48.0,-99.9,-99.9,-99.9,0,0,100,0.00,40.00,0,-999,0,0.00
2014-5-21,55.0,53.1,51.0,-99.9,-99.9,-99.9,0,0,100,0.00,40.00,0,-999,0,0.00
2014-5-22,62.0,54.0,48.0,-99.9,-99.9,-99.9,0,0,100,0.00,40.00,0,-999,0,0.00
2014-5-23,62.0,54.8,49.0,-99.9,-99.9,-99.9,0,0,100,0.00,40.00,0,-999,0,0.00
2014-5-24,60.0,54.6,51.0,-99.9,-99.9,-99.9,0,0,100,0.00,40.00,0,-999,0,0.00
2014-5-25,69.0,61.1,52.0,-99.9,-99.9,-99.9,0,0,100,0.00,40.00,0,-999,0,0.00
2014-5-26,76.0,62.9,51.0,-99.9,-99.9,-99.9,0,0,100,0.00,40.00,0,-999,0,0.00
2014-5-27,71.0,60.8,51.0,-99.9,-99.9,-99.9,0,0,100,0.00,40.00,0,-999,0,0.00
2014-5-28,73.0,64.4,50.0,-99.9,-99.9,-99.9,0,0,100,0.00,40.00,0,-999,0,0.00
2014-5-29,76.0,66.2,51.0,-99.9,-99.9,-99.9,0,0,100,0.00,40.00,0,-999,0,0.00
2014-5-30,64.0,52.3,43.0,-99.9,-99.9,-99.9,0,0,100,0.00,40.00,0,-999,0,0.00
2014-5-31,62.0,53.8,44.0,-99.9,-99.9,-99.9,0,0,100,0.00,40.00,0,-999,0,0.00
2014-6-1,63.0,52.9,46.0,-99.9,-99.9,-99.9,0,0,100,0.00,40.00,0,-999,0,0.00
2014-6-2,59.0,53.1,47.0,-99.9,-99.9,-99.9,0,0,100,0.00,40.00,0,-999,0,0.00
2014-6-3,63.0,55.0,50.0,-99.9,-99.9,-99.9,0,0,100,0.00,40.00,0,-999,0,0.00
2014-6-4,66.0,55.8,47.0,-99.9,-99.9,-99.9,0,0,100,0.00,40.00,0,-999,0,0.00
2014-6-5,65.0,55.1,48.0,-99.9,-99.9,-99.9,0,0,100,0.00,40.00,0,-999,0,0.00
2014-6-6,65.0,55.5,47.0,-99.9,-99.9,-99.9,0,0,100,0.00,40.00,0,-999,0,0.00
2014-6-7,62.0,54.8,48.0,-99.9,-99.9,-99.9,0,0,100,0.00,40.00,0,-999,0,0.00
2014-6-8,72.0,59.5,49.0,-99.9,-99.9,-99.9,0,0,100,0.00,40.00,0,-999,0,0.00
2014-6-9,71.0,57.0,47.0,-99.9,-99.9,-99.9,0,0,100,0.00,40.00,0,-999,0,0.00
2014-6-10,65.0,58.7,51.0,-99.9,-99.9,-99.9,0,0,100,0.00,40.00,0,-999,0,0.00
2014-6-11,66.0,58.3,55.0,-99.9,-99.9,-99.9,0,0,100,0.00,40.00,0,-999,0,0.00
2014-6-12,66.0,58.8,52.0,-99.9,-99.9,-99.9,0,0,100,0.00,40.00,0,-999,0,0.00
2014-6-13,65.0,56.8,48.0,-99.9,-99.9,-99.9,0,0,100,0.00,40.00,0,-999,0,0.00
2014-6-14,72.0,60.1,48.0,-99.9,-99.9,-99.9,0,0,100,0.00,40.00,0,-999,0,0.00
2014-6-15,59.0,53.2,47.0,-99.9,-99.9,-99.9,0,0,100,0.00,40.00,0,-999,0,0.00
2014-6-16,60.0,54.4,51.0,-99.9,-99.9,-99.9,0,0,100,0.00,40.00,0,-999,0,0.00
2014-6-17,61.0,54.0,47.0,-99.9,-99.9,-99.9,0,0,100,0.00,40.00,0,-999,0,0.00
2014-6-18,70.0,57.3,46.0,-99.9,-99.9,-99.9,0,0,100,0.00,40.00,0,-999,0,0.00
2014-6-19,71.0,58.0,47.0,-99.9,-99.9,-99.9,0,0,100,0.00,40.00,0,-999,0,0.00
2014-6-20,76.0,59.0,45.0,-99.9,-99.9,-99.9,0,0,100,0.00,40.00,0,-999,0,0.00
2014-6-21,69.0,57.6,48.0,-99.9,-99.9,-99.9,0,0,100,0.00,40.00,0,-999,0,0.00
2014-6-22,65.0,52.0,45.0,-99.9,-99.9,-99.9,0,0,100,0.00,40.00,0,-999,0,0.00
2014-6-23,65.0,55.1,49.0,-99.9,-99.9,-99.9,0,0,100,0.00,40.00,0,-999,0,0.00
2014-6-24,72.0,59.3,49.0,-99.9,-99.9,-99.9,0,0,100,0.00,40.00,0,-999,0,0.00
2014-6-25,65.0,54.9,47.0,-99.9,-99.9,-99.9,0,0,100,0.00,40.00,0,-999,0,0.00
2014-6-26,66.0,58.4,51.0,-99.9,-99.9,-99.9,0,0,100,0.00,40.00,0,-999,0,0.00
2014-6-27,74.0,61.0,53.0,-99.9,-99.9,-99.9,0,0,100,0.00,40.00,0,-999,0,0.00
2014-6-28,72.0,58.7,52.0,-99.9,-99.9,-99.9,0,0,100,0.00,40.00,0,-999,0,0.00
2014-6-29,76.0,62.9,53.0,-99.9,-99.9,-99.9,0,0,100,0.00,40.00,0,-999,0,0.00
2014-6-30,70.0,60.9,51.0,-99.9,-99.9,-99.9,0,0,100,0.00,40.00,0,-999,0,0.00
2014-7-1,70.0,60.0,54.0,-99.9,-99.9,-99.9,0,0,100,0.00,40.00,0,-999,0,0.00
2014-7-2,66.0,57.6,52.0,-99.9,-99.9,-99.9,0,0,100,0.00,40.00,0,-999,0,0.00
2014-7-3,72.0,58.4,52.0,-99.9,-99.9,-99.9,0,0,100,0.00,40.00,0,-999,0,0.00
2014-7-4,75.0,60.7,51.0,-99.9,-99.9,-99.9,0,0,100,0.00,40.00,0,-999,0,0.00
2014-7-5,77.0,65.4,50.0,-99.9,-99.9,-99.9,0,0,100,0.00,40.00,0,-999,0,0.00
2014-7-6,78.0,65.1,53.0,-99.9,-99.9,-99.9,0,0,100,0.00,40.00,0,-999,0,0.00
2014-7-7,73.0,57.8,51.0,-99.9,-99.9,-99.9,0,0,100,0.00,40.00,0,-999,0,0.00
2014-7-8,70.0,63.1,53.0,-99.9,-99.9,-99.9,0,0,100,0.00,40.00,0,-999,0,0.00
2014-7-9,71.0,60.7,54.0,-99.9,-99.9,-99.9,0,0,100,0.00,40.00,0,-999,0,0.00
2014-7-10,68.0,59.2,57.0,-99.9,0.0,200.0,0,0,100,0.00,40.00,0,0,0,0.00
2014-7-11,67.0,58.9,54.0,-99.9,0.0,200.0,0,0,100,0.00,40.00,0,0,0,0.00
2014-7-12,69.0,62.4,55.0,-99.9,0.0,200.0,0,0,100,0.00,40.00,0,0,0,0.00
2014-7-13,73.0,62.8,52.0,-99.9,0.0,200.0,0,0,100,0.00,40.00,0,0,0,0.00
2014-7-14,76.0,64.2,58.0,-99.9,0.0,200.0,0,0,100,0.00,40.00,0,0,0,0.00
2014-7-15,70.0,65.0,62.0,-99.9,0.0,200.0,0,0,100,0.00,40.00,0,0,0,0.00
2014-7-16,68.0,63.1,61.0,-99.9,0.0,200.0,0,0,100,0.00,40.00,0,0,0,0.00
2014-7-17,70.0,62.7,54.0,-99.9,0.0,200.0,0,0,100,0.00,40.00,0,0,0,0.00
2014-7-18,65.0,61.3,58.0,-99.9,0.0,200.0,0,0,100,0.00,40.00,0,0,0,0.00
2014-7-19,71.0,63.3,56.0,-99.9,0.0,200.0,0,0,100,0.00,40.00,0,0,0,0.00
2014-7-20,72.0,64.8,59.0,-99.9,0.0,200.0,0,0,100,0.00,40.00,0,0,0,0.00
2014-7-21,71.0,64.1,59.0,-99.9,0.0,200.0,0,0,100,0.00,40.00,0,0,0,0.00
2014-7-22,73.0,65.3,56.0,-99.9,0.0,200.0,0,0,100,0.00,40.00,0,0,0,0.00
2014-7-23,76.0,66.6,57.0,-99.9,0.0,200.0,0,0,100,0.00,40.00,0,0,0,0.00
2014-7-24,76.0,65.1,57.0,-99.9,0.0,200.0,0,0,100,0.00,40.00,0,0,0,0.00
2014-7-25,76.0,65.9,55.0,-99.9,0.0,200.0,0,0,100,0.00,40.00,0,0,0,0.00
2014-7-26,76.0,61.3,54.0,-99.9,0.0,200.0,0,0,100,0.00,40.00,0,0,0,0.00
2014-7-27,77.0,61.9,54.0,-99.9,0.0,200.0,0,0,100,0.00,40.00,0,0,0,0.00
2014-7-28,76.0,67.0,59.0,-99.9,0.0,200.0,0,0,100,0.00,40.00,0,0,0,0.00
2014-7-29,76.0,62.2,55.0,-99.9,0.0,200.0,0,0,100,0.00,40.00,0,0,0,0.00
2014-7-30,73.0,62.8,57.0,-99.9,0.0,200.0,0,0,100,0.00,40.00,0,0,0,0.00
2014-7-31,73.0,61.0,54.0,-99.9,0.0,200.0,0,0,100,0.00,40.00,0,0,0,0.00
2014-8-1,74.0,62.1,55.0,-99.9,0.0,200.0,0,0,100,0.00,40.00,0,0,0,0.00
2014-8-2,75.0,61.9,55.0,-99.9,0.0,200.0,0,0,100,0.00,40.00,0,0,0,0.00
2014-8-3,75.0,63.2,56.0,-99.9,0.0,200.0,0,0,100,0.00,40.00,0,0,0,0.00
2014-8-4,69.0,59.9,56.0,-99.9,0.0,200.0,0,0,100,0.00,40.00,0,0,0,0.00
2014-8-5,72.0,63.9,58.0,-99.9,0.0,200.0,0,0,100,0.00,40.00,0,0,0,0.00
2014-8-6,71.0,62.0,57.0,-99.9,0.0,200.0,0,0,100,0.00,40.00,0,0,0,0.00
2014-8-7,70.0,65.4,58.0,-99.9,0.0,200.0,0,0,100,0.00,40.00,0,0,0,0.00
2014-8-8,65.0,58.7,56.0,-99.9,0.0,200.0,0,0,100,0.00,40.00,0,0,0,0.00
2014-8-9,71.0,60.3,54.0,-99.9,0.0,200.0,0,0,100,0.00,40.00,0,0,0,0.00
2014-8-10,73.0,61.8,56.0,-99.9,0.0,200.0,0,0,100,0.00,40.00,0,0,0,0.00
2014-8-11,69.0,63.7,54.0,-99.9,0.0,200.0,0,0,100,0.00,40.00,0,0,0,0.00
2014-8-12,70.0,64.5,54.0,-99.9,0.0,200.0,0,0,100,0.00,40.00,0,0,0,0.00
2014-8-13,70.0,60.2,54.0,-99.9,0.0,200.0,0,0,100,0.00,40.00,0,0,0,0.00
2014-8-14,71.0,63.2,58.0,-99.9,0.0,200.0,0,0,100,0.00,40.00,0,0,0,0.00
2014-8-15,72.0,63.4,54.0,-99.9,0.0,200.0,0,0,100,0.00,40.00,0,0,0,0.00
2014-8-16,74.0,61.6,54.0,-99.9,0.0,200.0,0,0,100,0.00,40.00,0,0,0,0.00
2014-8-17,73.0,63.1,54.0,-99.9,0.0,200.0,0,0,100,0.00,40.00,0,0,0,0.00
2014-8-18,73.0,62.4,53.0,-99.9,0.0,200.0,0,0,100,0.00,40.00,0,0,0,0.00
2014-8-19,65.0,58.8,54.0,-99.9,0.0,200.0,0,0,100,0.00,40.00,0,0,0,0.00
2014-8-20,73.0,63.4,56.0,-99.9,0.0,200.0,0,0,100,0.00,40.00,0,0,0,0.00
2014-8-21,75.0,67.1,54.0,-99.9,0.0,200.0,0,0,100,0.00,40.00,0,0,0,0.00
2014-8-22,73.0,62.8,54.0,-99.9,0.0,200.0,0,0,100,0.00,40.00,0,0,0,0.00
2014-8-23,69.0,60.7,55.0,-99.9,0.0,200.0,0,0,100,0.00,40.00,0,0,0,0.00
2014-8-24,71.0,61.0,53.0,-99.9,0.0,200.0,0,0,100,0.00,40.00,0,0,0,0.00
2014-8-25,66.0,59.4,54.0,-99.9,0.0,200.0,0,0,100,0.00,40.00,0,0,0,0.00
2014-8-26,73.0,64.8,54.0,-99.9,0.0,200.0,0,0,100,0.00,40.00,0,0,0,0.00
2014-8-27,76.0,61.8,52.0,-99.9,0.0,200.0,0,0,100,0.00,40.00,0,0,0,0.00
2014-8-28,72.0,61.1,56.0,-99.9,0.0,200.0,0,0,100,0.00,40.00,0,0,0,0.00
2014-8-29,72.0,60.1,55.0,-99.9,0.0,200.0,0,0,100,0.00,40.00,0,0,0,0.00
2014-8-30,79.0,59.8,56.0,-99.9,0.0,200.0,0,0,100,0.00,40.00,0,0,0,0.00
2014-8-31,70.0,64.0,56.0,-99.9,0.0,200.0,0,0,100,0.00,40.00,0,0,0,0.00
2014-9-1,70.0,60.8,54.0,-99.9,0.0,200.0,0,0,100,0.00,40.00,0,0,0,0.00
2014-9-2,70.0,60.0,54.0,-99.9,0.0,200.0,0,0,100,0.00,40.00,0,0,0,0.00
2014-9-3,68.0,59.9,56.0,-99.9,0.0,200.0,0,0,100,0.00,40.00,0,0,0,0.00
2014-9-4,67.0,59.6,54.0,-99.9,0.0,200.0,0,0,100,0.00,40.00,0,0,0,0.00
2014-9-5,71.0,60.7,54.0,-99.9,0.0,200.0,0,0,100,0.00,40.00,0,0,0,0.00
2014-9-6,71.0,59.1,51.0,-99.9,0.0,200.0,0,0,100,0.00,40.00,0,0,0,0.00
2014-9-7,72.0,59.0,51.0,-99.9,0.0,200.0,0,0,100,0.00,40.00,0,0,0,0.00
2014-9-8,67.0,59.9,54.0,-99.9,0.0,200.0,0,0,100,0.00,40.00,0,0,0,0.00
2014-9-9,72.0,60.5,49.0,-99.9,0.0,200.0,0,0,100,0.00,40.00,0,0,0,0.00
2014-9-10,77.0,60.3,49.0,-99.9,0.0,200.0,0,0,100,0.00,40.00,0,0,0,0.00
2014-9-11,76.0,60.3,51.0,-99.9,0.0,200.0,0,0,100,0.00,40.00,0,0,0,0.00
2014-9-12,73.0,58.6,52.0,-99.9,0.0,200.0,0,0,100,0.00,40.00,0,0,0,0.00
2014-9-13,73.0,60.1,54.0,-99.9,0.0,200.0,0,0,100,0.00,40.00,0,0,0,0.00
2014-9-14,76.0,64.1,54.0,-99.9,0.0,200.0,0,0,100,0.00,40.00,0,0,0,0.00
2014-9-15,79.0,63.0,54.0,-99.9,0.0,200.0,0,0,100,0.00,40.00,0,0,0,0.00
2014-9-16,80.0,63.1,56.0,-99.9,0.0,200.0,0,0,100,0.00,40.00,0,0,0,0.00
2014-9-17,72.0,62.3,54.0,-99.9,0.0,200.0,0,0,100,0.00,40.00,0,0,0,0.00
2014-9-18,73.0,65.9,59.0,-99.9,0.0,200.0,0,0,100,0.00,40.00,0,0,0,0.00
2014-9-19,71.0,64.6,59.0,-99.9,0.0,200.0,0,0,100,0.00,40.00,0,0,0,0.00
2014-9-20,69.0,60.9,57.0,-99.9,0.0,200.0,0,0,100,0.00,40.00,0,0,0,0.00
2014-9-21,68.0,61.4,58.0,-99.9,0.0,200.0,0,0,100,0.00,40.00,0,0,0,0.00
2014-9-22,72.0,63.9,55.0,-99.9,0.0,200.0,0,0,100,0.00,40.00,0,0,0,0.00
2014-9-23,76.0,62.0,55.0,-99.9,0.0,200.0,0,0,100,0.00,40.00,0,0,0,0.00
2014-9-24,69.0,60.2,55.0,-99.9,0.0,200.0,0,0,100,0.00,40.00,0,0,0,0.00
2014-9-25,69.0,63.5,57.0,-99.9,0.0,200.0,0,0,100,0.00,40.00,0,0,0,0.00
2014-9-26,70.0,61.2,55.0,-99.9,0.0,200.0,0,0,100,0.00,40.00,0,0,0,0.00
2014-9-27,66.0,59.1,52.0,-99.9,0.0,200.0,0,0,100,0.00,40.00,0,0,0,0.00
2014-9-28,67.0,60.1,54.0,-99.9,0.0,200.0,0,0,100,0.00,40.00,0,0,0,0.00
2014-9-29,73.0,61.2,54.0,-99.9,0.0,200.0,0,0,100,0.00,40.00,0,0,0,0.00
2014-9-30,73.0,62.9,54.0,-99.9,0.0,200.0,0,0,100,0.00,40.00,0,0,0,0.00
2014-10-1,86.0,74.0,54.0,-99.9,0.0,200.0,0,0,100,0.00,40.00,0,0,0,0.00
2014-10-2,94.0,79.9,65.0,-99.9,0.0,200.0,0,0,100,0.00,40.00,0,0,0,0.00
2014-10-3,94.0,80.8,65.0,-99.9,0.0,200.0,0,0,100,0.00,40.00,0,0,0,0.00
2014-10-4,96.0,87.9,82.0,-99.9,0.0,200.0,0,0,100,0.00,40.00,0,0,0,0.00
2014-10-5,90.0,78.1,68.0,-99.9,0.0,200.0,0,0,100,0.00,40.00,0,0,0,0.00
2014-10-6,80.0,69.8,57.0,-99.9,0.0,200.0,0,0,100,0.00,40.00,0,0,0,0.00
2014-10-7,77.0,61.5,49.0,-99.9,0.0,200.0,0,0,100,0.00,40.00,0,0,0,0.00
2014-10-8,74.0,65.7,49.0,-99.9,0.0,200.0,0,0,100,0.00,40.00,0,0,0,0.00
2014-10-9,71.0,59.7,49.0,-99.9,0.0,200.0,0,0,100,0.00,40.00,0,0,0,0.00
2014-10-10,65.0,56.4,51.0,-99.9,0.0,200.0,0,0,100,0.00,40.00,0,0,0,0.00
2014-10-11,69.0,58.7,49.0,-99.9,0.0,200.0,0,0,100,0.00,40.00,0,0,0,0.00
2014-10-12,88.0,74.0,56.0,-99.9,0.0,200.0,0,0,100,0.00,40.00,0,0,0,0.00
2014-10-13,73.0,65.8,55.0,-99.9,0.0,200.0,0,0,100,0.00,40.00,0,0,0,0.00
2014-10-14,66.0,62.7,58.0,-99.9,0.0,200.0,0,0,100,0.00,40.00,0,0,0,0.00
2014-10-15,71.0,63.6,57.0,-99.9,0.0,200.0,0,0,100,0.00,40.00,0,0,0,0.00
2014-10-16,67.0,60.7,55.0,-99.9,0.0,200.0,0,0,100,0.00,40.00,0,0,0,0.00
2014-10-17,58.0,54.0,51.0,-99.9,0.0,200.0,0,0,100,0.00,40.00,0,0,0,0.00
2014-10-18,73.0,62.1,56.0,-99.9,0.0,200.0,0,0,100,0.00,40.00,0,0,0,0.00
2014-10-19,72.0,61.9,54.0,-99.9,0.0,200.0,0,0,100,0.00,40.00,0,0,0,0.00
2014-10-20,66.0,60.7,54.0,-99.9,0.0,200.0,0,0,100,0.00,40.00,0,0,0,0.00
2014-10-21,74.0,61.4,55.0,-99.9,0.0,200.0,0,0,100,0.00,40.00,0,0,0,0.00
2014-10-22,76.0,66.9,58.0,-99.9,0.0,200.0,0,0,100,0.00,40.00,0,0,0,0.00
2014-10-23,77.0,66.6,54.0,-99.9,0.0,200.0,0,0,100,0.00,40.00,0,0,0,0.00
2014-10-24,75.0,57.9,48.0,-99.9,0.0,200.0,0,0,100,0.00,40.00,0,0,0,0.00
2014-10-25,68.0,59.1,50.0,-99.9,0.0,200.0,0,0,100,0.00,40.00,0,0,0,0.00
2014-10-26,68.0,59.8,54.0,-99.9,0.0,200.0,0,0,100,0.00,40.00,0,0,0,0.00
2014-10-27,69.0,61.1,51.0,-99.9,0.0,200.0,0,0,100,0.00,40.00,0,0,0,0.00
2014-10-28,73.0,65.6,58.0,-99.9,0.0,200.0,0,0,100,0.00,40.00,0,0,0,0.00
2014-10-29,83.0,68.6,58.0,-99.9,0.0,200.0,0,0,100,0.00,40.00,0,0,0,0.00
2014-10-30,67.0,59.7,55.0,-99.9,0.0,200.0,0,0,100,0.00,40.00,0,0,0,0.00
2014-10-31,64.0,58.4,51.0,-99.9,0.0,200.0,0,0,100,0.00,40.00,0,0,0,0.00
2014-11-1,58.0,52.9,49.0,-99.9,0.0,200.0,0,0,100,0.00,40.00,0,0,0,0.00
2014-11-2,62.0,54.2,49.0,-99.9,0.0,200.0,0,0,100,0.00,40.00,0,0,0,0.00
2014-11-3,65.0,57.1,50.0,-99.9,0.0,200.0,0,0,100,0.00,40.00,0,0,0,0.00
2014-11-4,73.0,63.8,56.0,-99.9,0.0,200.0,0,0,100,0.00,40.00,0,0,0,0.00
2014-11-5,81.0,66.7,59.0,-99.9,0.0,200.0,0,0,100,0.00,40.00,0,0,0,0.00
2014-11-6,75.0,63.3,54.0,-99.9,0.0,200.0,0,0,100,0.00,40.00,0,0,0,0.00
2014-11-7,80.0,67.6,58.0,-99.9,0.0,200.0,0,0,100,0.00,40.00,0,0,0,0.00
2014-11-8,72.0,63.5,54.0,-99.9,0.0,200.0,0,0,100,0.00,40.00,0,0,0,0.00
2014-11-9,64.0,53.2,46.0,-99.9,0.0,200.0,0,0,100,0.00,40.00,0,0,0,0.00
2014-11-10,60.0,57.5,54.0,-99.9,0.0,200.0,0,0,100,0.00,40.00,0,0,0,0.00
2014-11-11,60.0,57.1,55.0,-99.9,0.0,200.0,0,0,100,0.00,40.00,0,0,0,0.00
2014-11-12,62.0,55.5,49.0,-99.9,0.0,200.0,0,0,100,0.00,40.00,0,0,0,0.00
2014-11-13,51.0,23.5,-18.0,-99.9,0.0,200.0,0,0,100,0.00,40.00,0,0,0,0.00
2014-11-14,67.0,14.5,-50.0,-99.9,0.0,200.0,0,0,100,0.00,40.00,0,0,0,0.00
2014-11-15,63.0,56.0,51.0,-99.9,0.0,200.0,0,0,100,0.00,40.00,0,0,0,0.00
2014-11-16,67.0,59.4,52.0,-99.9,0.0,200.0,0,0,100,0.00,40.00,0,0,0,0.00
2014-11-17,71.0,59.3,52.0,-99.9,0.0,200.0,0,0,100,0.00,40.00,0,0,0,0.00
2014-11-18,70.0,59.9,51.0,-99.9,0.0,200.0,0,0,100,0.00,40.00,0,0,0,0.00
2014-11-19,62.0,57.1,54.0,-99.9,0.0,200.0,0,0,100,0.00,40.00,0,0,0,0.00
2014-11-20,58.0,53.7,51.0,-99.9,0.0,200.0,0,0,100,0.00,40.00,0,0,0,0.00
2014-11-21,63.0,55.4,50.0,-99.9,0.0,200.0,0,0,100,0.00,40.00,0,0,0,0.00
2014-11-22,64.0,57.2,51.0,-99.9,0.0,200.0,0,0,100,0.00,40.00,0,0,0,0.00
2014-11-23,65.0,56.0,50.0,-99.9,0.0,200.0,0,0,100,0.00,40.00,0,0,0,0.00
2014-11-24,69.0,59.2,53.0,-99.9,0.0,200.0,0,0,100,0.00,40.00,0,0,0,0.00
2014-11-25,73.0,63.2,51.0,-99.9,0.0,200.0,0,0,100,0.00,40.00,0,0,0,0.00
2014-11-26,80.0,62.7,54.0,-99.9,0.0,200.0,0,0,100,0.00,40.00,0,0,0,0.00
2014-11-27,73.0,63.4,54.0,-99.9,0.0,200.0,0,0,100,0.00,40.00,0,0,0,0.00
2014-11-28,72.0,57.1,46.0,-99.9,0.0,200.0,0,0,100,0.00,40.00,0,0,0,0.00
2014-11-29,67.0,53.4,38.0,-99.9,0.0,200.0,0,0,100,0.00,40.00,0,0,0,0.00
2014-11-30,61.0,56.4,51.0,-99.9,0.0,200.0,0,0,100,0.00,40.00,0,0,0,0.00
2014-12-1,65.0,60.3,52.0,-99.9,0.0,200.0,0,0,100,0.00,40.00,0,0,0,0.00
2014-12-2,58.0,56.2,54.0,-99.9,0.0,200.0,0,0,100,0.00,40.00,0,0,0,0.00
2014-12-3,63.0,59.8,57.0,-99.9,0.0,200.0,0,0,100,0.00,40.00,0,0,0,0.00
2014-12-4,60.0,57.8,55.0,-99.9,0.0,200.0,0,0,100,0.00,40.00,0,0,0,0.00
2014-12-5,61.0,57.8,56.0,-99.9,0.0,200.0,0,0,100,0.00,40.00,0,0,0,0.00
2014-12-6,69.0,58.2,54.0,-99.9,0.0,200.0,0,0,100,0.00,40.00,0,0,0,0.00
2014-12-7,65.0,57.0,53.0,-99.9,0.0,200.0,0,0,100,0.00,40.00,0,0,0,0.00
2014-12-8,65.0,56.7,51.0,-99.9,0.0,200.0,0,0,100,0.00,40.00,0,0,0,0.00
2014-12-9,65.0,59.2,50.0,-99.9,0.0,200.0,0,0,100,0.00,40.00,0,0,0,0.00
2014-12-10,63.0,56.2,52.0,-99.9,0.0,200.0,0,0,100,0.00,40.00,0,0,0,0.00
2014-12-11,58.0,55.5,47.0,-99.9,0.0,200.0,0,0,100,0.00,40.00,0,0,0,0.00
2014-12-12,54.0,49.7,47.0,-99.9,0.0,200.0,0,0,100,0.00,40.00,0,0,0,0.00
2014-12-13,54.0,47.4,42.0,-99.9,0.0,200.0,0,0,100,0.00,40.00,0,0,0,0.00
2014-12-14,55.0,50.0,45.0,-99.9,0.0,200.0,0,0,100,0.00,40.00,0,0,0,0.00
2014-12-15,54.0,49.7,46.0,-99.9,0.0,200.0,0,0,100,0.00,40.00,0,0,0,0.00
2014-12-16,58.0,50.8,45.0,-99.9,0.0,200.0,0,0,100,0.00,40.00,0,0,0,0.00
2014-12-17,54.0,47.6,43.0,-99.9,0.0,200.0,0,0,100,0.00,40.00,0,0,0,0.00
2014-12-18,56.0,50.4,46.0,-99.9,0.0,200.0,0,0,100,0.00,40.00,0,0,0,0.00
2014-12-19,58.0,52.3,48.0,-99.9,0.0,200.0,0,0,100,0.00,40.00,0,0,0,0.00
2014-12-20,61.0,55.7,51.0,-99.9,0.0,200.0,0,0,100,0.00,40.00,0,0,0,0.00
2014-12-21,62.0,58.0,53.0,-99.9,0.0,200.0,0,0,100,0.00,40.00,0,0,0,0.00
2014-12-22,65.0,59.9,56.0,-99.9,0.0,200.0,0,0,100,0.00,40.00,0,0,0,0.00
2014-12-23,67.0,59.5,54.0,-99.9,0.0,200.0,0,0,100,0.00,40.00,0,0,0,0.00
2014-12-24,58.0,54.2,50.0,-99.9,0.0,200.0,0,0,100,0.00,40.00,0,0,0,0.00
2014-12-25,55.0,48.7,44.0,-99.9,0.0,200.0,0,0,100,0.00,40.00,0,0,0,0.00
2014-12-26,54.0,47.3,40.0,-99.9,0.0,200.0,0,0,100,0.00,40.00,0,0,0,0.00
2014-12-27,57.0,48.4,36.0,-99.9,0.0,200.0,0,0,100,0.00,40.00,0,0,0,0.00
2014-12-28,57.0,50.6,44.0,-99.9,0.0,200.0,0,0,100,0.00,40.00,0,0,0,0.00
2014-12-29,60.0,50.5,46.0,-99.9,0.0,200.0,0,0,100,0.00,40.00,0,0,0,0.00
2014-12-30,50.0,43.8,39.0,-99.9,0.0,200.0,0,0,100,0.00,40.00,0,0,0,0.00
2014-12-31,51.0,43.0,37.0,-99.9,0.0,200.0,0,0,100,0.00,40.00,0,0,0,0.00
2015-1-1,56.0,43.2,32.0,-99.9,0.0,200.0,0,0,100,0.00,40.00,0,0,0,0.00
2015-1-2,56.0,44.5,34.0,-99.9,0.0,200.0,0,0,100,0.00,40.00,0,0,0,0.00